Wind_Speed
22 21 21 21 21 21 21 21 21 20 20 20 20 20 20 20 21 21 21 21 21 21 20 20 20 20 21 21 21 21 21 21 21 21 21 20 20 21 20 20 20 20 19
23 23 22 22 22 22 22 22 22 21 21 21 22 21 22 22 22 22 22 22 22 22 22 22 21 21 22 21 21 21 21 21 21 21 20 21 22 22 21 21 21 20 20
23 23 23 23 23 23 23 23 22 22 22 23 23 22 22 23 23 23 23 23 23 23 23 23 22 23 23 22 22 21 21 20 21 21 21 21 22 21 21 21 21 21 20
24 24 24 24 24 23 24 24 23 23 23 23 23 23 23 23 24 24 24 24 24 24 24 24 24 24 24 24 23 22 22 21 21 21 21 21 21 21 21 21 21 21 21
25 25 25 25 24 24 24 24 23 24 24 24 24 24 24 25 25 25 25 25 25 25 25 25 24 25 25 25 24 24 23 22 22 22 22 21 22 22 22 21 22 22 22
25 26 26 25 25 25 25 25 24 24 25 25 25 25 25 25 25 25 25 26 26 26 25 25 25 26 26 26 25 25 24 23 24 24 23 23 23 23 23 23 23 23 24
26 25 25 26 26 25 25 25 26 25 26 26 26 26 26 26 26 26 26 27 27 27 26 26 26 26 26 26 25 25 25 24 25 25 25 24 24 24 24 25 25 25 25
26 25 25 26 26 27 27 27 27 26 26 27 26 26 26 27 27 27 28 28 28 27 27 27 26 26 26 26 26 26 26 26 26 26 26 25 26 26 26 26 26 26 26
26 26 26 27 27 27 27 27 27 26 27 27 27 27 27 27 28 28 29 29 29 28 28 27 27 27 27 27 28 27 27 28 28 28 27 27 27 27 28 28 27 27 27
27 27 27 28 28 28 27 28 28 28 27 27 28 28 28 29 29 29 29 29 29 28 28 27 27 28 28 28 29 29 28 28 29 29 28 28 27 28 28 29 28 28 28
28 28 28 29 28 28 28 29 29 29 29 29 29 29 29 29 30 30 29 30 29 28 28 28 28 28 28 29 29 30 29 29 29 29 29 28 28 28 28 28 28 28 28
29 29 30 30 30 30 30 30 30 30 30 30 30 30 29 29 30 30 30 30 29 29 29 28 28 28 29 29 29 30 30 29 29 29 29 28 28 28 28 29 29 29 29
30 30 30 30 31 31 31 31 31 31 31 31 31 31 30 30 31 31 30 30 30 30 29 29 29 29 29 29 30 30 30 29 29 30 29 29 28 29 29 30 30 30 30
30 31 31 32 32 33 33 32 32 32 32 32 31 31 31 31 31 31 31 31 31 31 31 31 30 30 30 30 30 30 30 30 29 30 30 30 30 30 30 30 31 31 31
30 31 31 32 32 33 33 33 32 32 33 33 32 32 32 32 32 33 33 33 32 32 32 31 31 30 30 30 31 31 31 32 31 31 31 31 30 31 31 32 32 32 32
31 31 32 32 32 32 33 33 33 33 33 33 33 33 34 34 34 34 34 33 33 33 32 31 31 31 31 31 31 31 32 32 32 32 32 32 32 32 33 33 34 34 33
31 31 31 32 32 32 33 33 33 33 34 34 34 34 34 34 34 34 34 34 33 33 33 33 32 32 32 32 32 32 33 33 33 33 33 33 33 33 33 33 34 34 34
33 32 32 32 32 33 33 34 34 34 34 35 35 35 35 35 34 34 34 35 35 34 34 34 34 33 33 33 33 33 33 33 34 34 34 34 34 34 34 34 34 34 34
33 33 33 32 33 33 33 34 34 34 34 35 35 35 35 35 35 36 36 36 36 35 35 35 35 34 34 35 35 34 34 34 34 34 34 35 35 34 34 34 34 34 34
34 35 34 34 33 33 34 34 35 35 34 34 35 35 35 35 36 36 37 37 36 36 36 36 36 35 35 35 35 35 35 35 34 34 34 35 35 34 35 35 34 33 33
35 34 34 35 35 35 35 35 35 36 36 36 36 35 36 36 36 37 37 37 37 36 36 36 36 36 36 36 35 35 35 35 34 34 34 34 35 34 34 34 33 33 33
35 35 35 35 35 36 36 36 36 36 37 37 36 36 36 36 36 37 36 36 36 36 36 36 36 35 35 35 34 34 34 34 34 34 33 33 33 34 34 33 33 33 33
35 35 35 35 36 36 36 35 35 36 36 36 36 36 36 36 36 36 36 36 36 36 36 35 35 34 34 34 33 33 33 33 33 34 34 34 33 33 33 33 33 33 33
35 34 35 35 35 35 35 35 36 36 36 36 36 36 37 37 36 36 35 35 35 35 35 35 34 34 34 34 34 33 33 33 34 34 34 34 33 33 33 33 33 33 33
34 34 34 34 34 34 35 35 36 36 36 35 35 35 35 36 36 35 35 35 35 35 35 35 35 34 35 34 34 34 34 34 34 34 33 33 33 33 33 33 33 33 33
34 34 34 35 35 35 34 34 35 34 34 34 34 34 34 34 34 34 33 33 34 34 34 34 34 35 34 34 33 33 33 33 33 32 32 32 32 32 32 32 32 32 33
Wind_Direction
283 283 284 286 288 289 291 290 291 292 292 293 295 295 295 295 296 297 299 299 296 293 291 291 291 291 291 291 288 287 285 282 281 280 280 279 278 279 278 278 277 277 278
282 282 283 285 287 289 290 291 291 290 290 291 294 293 294 295 295 295 297 298 296 293 291 290 290 291 290 290 289 287 285 283 281 279 279 278 279 279 277 276 276 276 276
283 282 282 284 287 287 287 289 290 290 290 292 293 292 293 294 295 295 296 296 296 293 291 291 290 290 289 289 289 287 285 283 281 280 280 280 279 278 277 276 276 276 276
282 283 283 283 284 285 286 287 288 289 290 292 292 291 292 293 294 295 295 296 295 294 292 291 290 290 289 288 288 288 285 282 280 280 280 279 279 277 277 277 277 277 276
281 283 284 284 283 284 284 286 287 288 290 291 292 292 292 292 293 294 295 295 294 293 292 291 290 290 289 288 287 287 283 282 280 280 279 278 278 277 276 277 276 275 276
280 281 282 283 283 282 283 285 287 288 289 290 290 291 292 292 292 293 294 294 294 292 291 291 289 289 288 287 288 287 284 281 279 278 278 277 276 276 276 276 274 274 275
280 280 281 281 281 281 282 283 285 287 287 288 288 289 290 291 291 292 292 293 293 292 291 290 289 288 287 286 287 286 284 282 280 278 277 275 275 275 276 276 276 275 276
281 281 280 280 281 281 279 281 283 285 286 286 288 289 290 291 290 290 291 292 292 291 291 290 287 286 287 286 285 285 283 281 279 278 278 276 275 275 276 276 277 277 277
279 280 280 280 282 282 281 281 284 285 286 286 287 289 290 290 291 291 291 291 291 289 289 288 286 285 286 286 285 285 284 281 278 277 278 277 274 274 275 276 276 276 276
278 279 280 281 281 281 281 282 284 284 285 286 287 289 289 290 291 291 291 290 290 289 288 287 286 285 286 286 285 286 285 283 280 278 277 276 274 273 274 275 275 275 275
277 279 281 282 281 281 281 282 283 285 286 286 288 288 289 290 290 290 290 289 289 288 288 287 286 285 286 286 285 286 285 284 281 279 278 275 274 273 274 275 276 276 276
278 279 280 281 282 282 281 282 283 285 286 287 287 288 288 288 289 289 289 288 287 287 287 287 286 285 285 285 285 285 285 285 282 279 278 277 275 275 276 277 276 276 276
278 279 280 282 282 282 282 281 283 285 286 287 287 287 287 287 288 288 287 286 286 286 286 286 286 284 284 284 284 283 283 284 282 280 277 276 275 275 276 276 276 275 274
278 279 281 281 282 282 281 281 282 283 285 286 285 286 287 287 287 287 286 285 285 285 286 286 285 284 283 283 283 282 282 282 283 281 279 278 276 276 276 275 274 274 274
279 281 282 282 282 283 283 282 283 284 285 283 285 287 288 288 287 287 286 285 284 284 284 284 284 283 282 281 281 282 282 282 282 283 281 279 277 277 277 276 274 274 274
281 281 281 281 282 283 282 282 283 284 284 284 285 286 287 287 286 285 285 284 284 284 284 284 284 283 282 282 282 283 282 282 282 282 281 280 279 278 277 276 274 274 274
283 283 282 281 282 283 283 282 283 284 285 285 285 285 285 285 284 283 283 283 283 284 284 283 283 283 282 282 282 282 282 281 281 281 280 281 280 279 278 277 276 275 274
284 285 283 283 284 283 282 282 283 284 284 285 285 285 284 284 283 283 283 283 284 284 284 283 283 283 283 283 282 282 282 281 280 279 279 280 280 279 279 278 277 276 275
283 284 286 285 284 284 283 283 283 284 284 285 285 285 284 283 283 283 284 283 283 283 283 283 283 283 282 282 282 281 281 282 281 280 279 280 280 281 281 279 277 276 275
283 284 284 285 285 285 284 284 284 285 286 285 285 284 284 283 284 284 284 284 283 283 283 283 283 283 282 282 282 281 281 281 280 280 280 280 280 281 281 279 277 275 274
283 284 285 286 285 284 284 285 285 285 285 286 286 286 285 285 284 284 284 284 283 283 283 283 283 283 283 282 281 281 281 281 281 281 280 280 280 280 279 278 277 276 274
283 283 285 286 286 285 284 284 284 285 285 286 286 286 286 286 286 285 285 284 283 283 283 283 283 284 283 282 281 281 281 282 282 281 280 281 280 279 277 277 276 276 275
284 284 284 286 286 286 285 284 285 286 286 286 285 285 286 286 286 285 284 284 283 282 281 282 283 283 283 282 281 281 280 280 281 281 281 281 281 280 278 277 276 277 276
284 285 285 286 286 286 285 285 286 286 287 287 287 286 285 285 285 284 283 283 282 282 282 282 282 282 281 281 281 281 280 279 280 280 280 280 280 279 278 277 276 276 276
283 284 285 286 287 287 286 286 287 287 287 287 287 287 286 285 284 283 283 283 284 283 283 282 282 282 281 279 278 278 278 278 278 279 279 280 280 279 278 278 277 277 276
283 284 286 287 287 288 287 287 287 287 287 286 287 287 287 286 284 284 284 284 285 284 283 283 283 283 282 280 278 276 276 276 277 278 278 279 280 279 278 278 277 276 275
Height
5804 5803 5802 5802 5801 5799 5799 5798 5796 5795 5794 5793 5792 5791 5789 5788 5786 5785 5783 5782 5780 5778 5777 5776 5775 5774 5773 5772 5771 5770 5769 5768 5768 5768 5768 5768 5767 5767 5767 5767 5767 5767 5767
5799 5798 5797 5796 5795 5794 5793 5792 5791 5790 5789 5788 5786 5785 5784 5782 5781 5779 5778 5776 5774 5773 5772 5771 5770 5768 5767 5766 5765 5764 5763 5762 5762 5762 5761 5761 5761 5761 5761 5761 5761 5761 5760
5793 5792 5791 5790 5789 5788 5787 5786 5785 5784 5783 5782 5780 5779 5778 5776 5775 5773 5771 5770 5768 5767 5766 5764 5763 5762 5761 5760 5759 5758 5757 5756 5756 5755 5755 5755 5755 5755 5754 5754 5754 5754 5754
5786 5786 5785 5784 5783 5782 5781 5780 5779 5778 5776 5775 5774 5773 5771 5770 5768 5767 5765 5763 5762 5760 5759 5758 5757 5756 5755 5753 5752 5751 5750 5750 5749 5749 5748 5748 5748 5748 5748 5748 5748 5748 5748
5780 5779 5778 5777 5776 5775 5774 5773 5772 5771 5770 5769 5767 5766 5765 5763 5762 5760 5758 5756 5755 5753 5752 5751 5750 5749 5748 5746 5746 5745 5744 5743 5743 5742 5742 5742 5742 5742 5742 5741 5741 5741 5741
5773 5772 5772 5770 5769 5768 5767 5766 5765 5764 5763 5762 5761 5759 5758 5756 5755 5753 5751 5750 5748 5747 5745 5744 5743 5742 5741 5740 5739 5738 5737 5736 5736 5736 5735 5735 5735 5735 5735 5734 5734 5734 5734
5766 5765 5764 5763 5763 5762 5760 5759 5758 5757 5756 5755 5754 5752 5751 5749 5748 5746 5744 5743 5741 5739 5738 5737 5736 5734 5733 5732 5731 5731 5730 5729 5728 5728 5728 5727 5727 5727 5727 5727 5727 5726 5727
5759 5758 5757 5756 5755 5754 5753 5752 5751 5750 5749 5748 5746 5745 5744 5742 5740 5739 5737 5735 5733 5732 5731 5729 5728 5727 5725 5724 5724 5723 5722 5721 5720 5720 5720 5719 5719 5719 5719 5719 5719 5718 5718
5752 5751 5750 5749 5748 5747 5746 5745 5743 5742 5741 5740 5739 5738 5736 5735 5733 5731 5729 5727 5726 5724 5723 5721 5720 5719 5718 5716 5716 5715 5714 5713 5712 5711 5711 5710 5710 5710 5710 5710 5710 5709 5709
5745 5744 5743 5742 5741 5740 5739 5737 5736 5735 5734 5732 5731 5730 5728 5727 5725 5723 5721 5719 5718 5716 5715 5713 5712 5711 5709 5708 5707 5706 5705 5704 5702 5702 5701 5701 5701 5701 5701 5701 5701 5701 5700
5737 5736 5735 5734 5733 5732 5731 5730 5729 5727 5726 5725 5723 5722 5720 5719 5717 5715 5713 5711 5710 5708 5707 5705 5704 5702 5701 5700 5698 5697 5696 5694 5693 5692 5692 5692 5692 5692 5692 5692 5692 5692 5692
5728 5728 5727 5726 5725 5723 5723 5722 5720 5719 5718 5716 5715 5713 5712 5710 5708 5706 5704 5703 5701 5700 5698 5697 5695 5694 5692 5691 5690 5688 5687 5685 5684 5683 5683 5683 5683 5683 5683 5683 5683 5682 5683
5720 5719 5718 5717 5716 5715 5714 5713 5712 5711 5709 5708 5706 5705 5703 5701 5699 5697 5696 5694 5692 5691 5689 5688 5687 5685 5683 5682 5681 5679 5678 5677 5676 5675 5674 5674 5674 5674 5674 5674 5673 5673 5673
5711 5710 5710 5709 5708 5706 5705 5704 5703 5702 5700 5698 5697 5695 5694 5692 5690 5688 5686 5685 5684 5682 5680 5679 5677 5676 5675 5673 5672 5670 5669 5668 5667 5666 5665 5665 5665 5665 5664 5664 5664 5664 5664
5702 5701 5700 5699 5698 5697 5696 5695 5693 5692 5690 5689 5687 5686 5684 5683 5681 5679 5677 5675 5674 5673 5671 5669 5668 5667 5665 5664 5663 5661 5660 5659 5658 5657 5656 5656 5655 5655 5654 5654 5653 5653 5653
5693 5692 5691 5690 5688 5687 5686 5685 5683 5681 5680 5678 5677 5676 5674 5672 5670 5668 5666 5665 5663 5662 5661 5659 5658 5657 5655 5654 5653 5652 5650 5649 5648 5647 5647 5646 5645 5644 5644 5643 5642 5642 5642
5684 5682 5681 5680 5679 5677 5676 5674 5673 5672 5670 5668 5667 5665 5663 5661 5659 5658 5656 5654 5653 5651 5650 5649 5647 5646 5645 5644 5642 5641 5640 5639 5638 5637 5636 5635 5634 5634 5633 5632 5631 5630 5630
5674 5673 5671 5670 5668 5667 5666 5664 5663 5661 5660 5658 5656 5654 5652 5650 5649 5647 5645 5644 5642 5641 5639 5638 5637 5635 5634 5633 5632 5631 5629 5628 5627 5626 5625 5624 5623 5622 5621 5621 5620 5619 5619
5664 5663 5661 5660 5658 5657 5655 5654 5652 5651 5649 5647 5645 5643 5641 5639 5638 5636 5634 5633 5631 5630 5628 5627 5625 5624 5623 5622 5621 5619 5618 5617 5616 5615 5614 5613 5612 5611 5610 5609 5609 5608 5608
5654 5653 5651 5649 5648 5646 5645 5643 5641 5639 5638 5636 5634 5632 5630 5628 5626 5624 5623 5621 5619 5618 5617 5615 5614 5613 5612 5611 5609 5608 5607 5606 5605 5604 5603 5602 5601 5600 5599 5598 5597 5597 5596
5643 5642 5640 5639 5637 5635 5634 5632 5630 5628 5626 5625 5623 5620 5618 5616 5615 5613 5611 5609 5608 5606 5605 5604 5602 5601 5600 5599 5598 5597 5596 5595 5593 5592 5591 5590 5589 5588 5587 5586 5586 5585 5585
5633 5631 5630 5628 5626 5624 5623 5621 5619 5617 5615 5613 5611 5609 5607 5605 5603 5601 5599 5598 5596 5594 5593 5592 5590 5589 5588 5587 5586 5585 5584 5583 5582 5581 5580 5579 5578 5577 5576 5575 5575 5574 5573
5622 5620 5619 5617 5615 5613 5611 5609 5607 5605 5603 5601 5599 5597 5595 5593 5591 5589 5588 5586 5584 5583 5581 5579 5578 5577 5576 5575 5574 5573 5573 5572 5571 5570 5569 5568 5567 5566 5565 5564 5563 5562 5562
5611 5609 5607 5606 5604 5602 5600 5598 5596 5594 5592 5589 5587 5585 5583 5581 5579 5577 5576 5574 5572 5571 5569 5568 5567 5566 5564 5564 5563 5561 5561 5560 5559 5558 5558 5557 5556 5555 5554 5553 5552 5551 5550
5599 5598 5596 5594 5593 5591 5589 5587 5585 5582 5580 5578 5576 5573 5571 5569 5567 5566 5564 5563 5561 5560 5558 5557 5555 5554 5553 5552 5551 5550 5549 5548 5548 5547 5546 5545 5545 5544 5543 5542 5541 5540 5539
5589 5587 5586 5584 5582 5580 5578 5576 5573 5571 5569 5567 5565 5563 5560 5558 5557 5555 5553 5551 5550 5548 5547 5546 5544 5543 5541 5540 5539 5538 5538 5537 5536 5535 5535 5534 5533 5532 5532 5531 5530 5529 5528